SCP
0 0 0 0 0 0 0 0 0 0 0 0 0 0 0 0 0 0 0 0 0 0 0 0 0 0 0 0 0 0 0 0 0 0 0 0 0 0
0 0 0 0 0 0 0 0 0 0 0 0 0 0 0 0 0 0 0 0 0 0 0 0 0 0 0 0 0 0 0 0 0 0 0 0 0 0
0 0 0 0 0 0 0 0 0 0 0 0 0 0 0 0 0 0 0 0 0 0 0 0 0 0 0 0 0 0 0 0 0 0 0 0 0 0
0 0 0 0 0 0 0 0 0 0 0 0 0 0 0 0 0 0 0 0 0 0 0 0 0 0 0 0 0 0 0 0 0 0 0 0 0 0
0 0 0 0 0 0 0 0 0 0 0 0 0 0 0 0 0 0 0 0 0 0 0 0 0 0 0 0 0 0 0 0 0 0 0 0 0 0
0 0 0 0 0 0 0 0 0 0 0 0 0 0 0 0 0 0 0 0 0 0 0 0 0 0 0 0 0 0 0 0 0 0 0 0 0 0
0 0 0 0 0 0 0 0 0 0 0 0 0 0 0 0 0 0 0 0 0 0 0 0 0 0 0 0 0 0 0 0 0 0 0 0 0 0
0 0 0 0 0 0 0 0 0 0 0 0 0 0 0 0 0 0 0 0 0 0 0 0 0 0 0 0 0 0 0 0 0 0 0 0 0 0
0 0 0 0 0 0 0 0 0 0 0 0 0 0 0 0 0 0 0 0 0 0 0 0 0 0 0 0 0 0 0 0 0 0 0 0 0 0
0 0 0 0 0 0 0 0 0 0 0 0 0 0 0 0 0 0 0 0 0 0 0 0 0 0 0 0 0 0 0 0 0 0 0 0 0 0
0 0 0 0 0 0 0 0 0 0 0 0 0 0 0 0 0 0 0 0 0 0 0 0 0 0 0 0 0 0 0 0 0 0 0 0 0 0
0 0 0 0 0 0 0 0 0 0 0 0 0 0 0 0 0 0 0 0 0 0 0 0 0 0 0 0 0 0 0 0 0 0 0 0 0 0
0 0 0 0 0 0 0 0 0 0 0 0 0 0 0 0 0 0 0 0 0 0 0 0 0 0 0 0 0 0 0 0 0 0 0 0 0 0
0 0 0 0 0 0 0 0 0 0 0 0 0 0 0 0 0 0 0 0 0 0 0 0 0 0 0 0 0 0 0 0 0 0 0 0 0 0
0 0 0 0 0 0 0 0 0 0 0 0 0 0 0 0 0 0 0 0 0 0 0 0 0 0 0 0 0 0 0 0 0 0 0 0 0 0
0 0 0 0 0 0 0 0 0 0 0 0 0 0 0 0 0 0 0 0 0 0 0 0 0 0 0 0 0 0 0 0 0 0 0 0 0 0
0 0 0 0 0 0 0 0 0 0 0 0 0 0 0 0 0 0 0 0 0 0 0 0 0 0 0 0 0 0 0 0 0 0 0 0 0 0
0 0 0 0 0 0 0 0 0 0 0 0 0 0 0 0 0 0 0 0 0 0 0 0 0 0 0 0 0 0 0 0 0 0 0 0 0 0
0 0 0 0 0 0 0 0 0 0 0 0 0 0 0 0 0 0 0 0 0 0 0 0 0 0 0 0 0 0 0 0 0 0 0 0 0 0
0 0 0 0 0 0 0 0 0 0 0 0 0 0 0 0 0 0 0 0 0 0 0 0 0 0 0 0 0 0 0 0 0 0 0 0 0 0
0 0 0 0 0 0 0 0 0 0 0 0 0 0 0 0 0 0 0 0 0 0 0 0 0 0 0 0 0 0 0 0 0 0 0 0 0 0
0 0 0 0 0 0 0 0 0 0 0 0 0 0 0 0 0 0 0 0 0 0 0 0 0 0 0 0 0 0 0 0 0 0 0 0 0 0
0 0 0 0 0 0 0 0 0 0 0 0 0 0 0 0 0 0 0 0 0 0 0 0 0 0 0 0 0 0 0 0 0 0 0 0 0 0
Wind_Speed
1 1 1 1 1 0 1 1 2 3 4 3 2 1 1 1 2 2 2 4 5 4 4 4 4 5 5 5 6 6 6 7 7 8 7 7 8 8
1 1 1 1 1 1 1 1 2 2 3 2 2 2 2 2 2 2 2 4 4 5 4 4 4 5 5 5 6 6 6 7 7 8 8 7 8 8
1 1 1 1 1 1 1 1 1 1 3 3 1 2 2 2 2 2 2 2 3 5 5 5 5 5 5 5 5 6 6 6 7 8 8 8 8 8
2 2 2 1 2 2 2 2 2 2 2 3 2 2 2 2 2 2 2 2 2 4 5 5 5 5 5 5 5 6 6 6 7 8 8 8 8 8
2 3 3 2 3 2 2 2 2 2 1 2 2 2 1 1 1 2 2 2 3 3 4 4 5 6 6 6 5 6 6 6 7 7 8 8 8 9
2 3 3 3 3 3 3 3 2 2 1 2 2 1 1 1 1 1 2 2 3 3 3 4 5 6 6 6 6 6 6 7 7 7 8 7 8 9
2 2 2 3 4 3 3 2 2 2 2 2 2 2 2 1 2 1 2 3 3 1 2 3 3 3 4 6 6 6 7 7 7 7 8 8 8 8
2 2 2 3 4 4 4 4 4 4 3 3 3 3 4 3 2 2 2 2 3 1 2 3 2 3 3 3 6 7 7 7 7 8 8 8 9 9
3 2 2 2 2 2 3 4 4 5 6 4 5 5 4 4 3 3 3 3 3 2 1 3 2 3 3 4 7 7 7 7 7 8 8 9 9 9
3 3 3 3 3 3 2 2 2 3 4 4 4 4 4 3 4 3 3 2 3 2 1 2 2 3 4 4 6 7 7 7 8 9 8 9 9 9
2 2 3 3 4 4 2 2 2 2 3 3 3 3 4 4 3 2 2 1 2 2 1 1 2 3 3 3 4 7 7 8 8 8 8 8 9 8
2 2 3 4 4 4 3 3 3 3 1 1 1 2 2 2 3 3 3 3 2 2 1 1 1 1 3 2 2 3 4 7 8 8 8 9 10 5
2 2 2 4 5 5 4 3 4 2 1 1 1 1 1 1 1 1 2 3 3 3 2 1 1 1 2 3 3 2 3 3 4 5 6 9 9 7
3 2 3 4 4 4 3 2 2 1 1 1 1 2 1 1 1 1 1 1 2 3 2 2 2 2 2 4 4 3 3 3 3 3 4 7 8 9
2 4 4 4 3 2 2 2 1 1 1 2 2 2 1 1 0 0 0 0 1 1 1 2 2 2 2 3 3 3 3 3 3 3 4 4 4 4
1 2 2 2 2 1 1 1 1 1 2 2 2 1 1 1 1 0 1 0 0 1 1 1 2 2 2 3 3 3 2 3 3 4 4 4 4 4
2 1 0 1 1 1 1 1 1 1 1 1 1 1 1 1 1 1 1 0 1 1 2 2 1 1 2 2 2 3 3 3 3 3 3 4 4 4
2 2 2 2 2 2 2 1 1 1 2 2 2 2 2 2 1 1 1 1 1 2 1 1 1 2 1 2 3 3 2 3 3 3 2 3 5 5
1 2 2 2 2 2 2 2 2 2 1 2 2 2 2 2 1 1 1 1 1 1 1 1 1 0 1 3 3 2 2 3 3 3 2 2 5 6
1 2 3 3 3 3 3 3 2 2 2 2 2 2 2 2 2 2 2 2 2 1 1 1 1 1 2 3 3 3 4 3 3 3 4 4 4 7
2 3 3 3 3 3 3 3 3 3 3 2 2 2 2 2 2 2 2 2 2 2 2 2 2 2 1 0 1 3 3 4 4 4 4 4 4 4
3 3 3 3 3 3 3 3 3 3 3 3 3 2 3 3 3 3 2 2 2 2 2 2 1 1 1 2 3 4 4 5 6 8 7 6 3 3
3 3 3 3 3 3 3 4 4 3 3 3 3 3 2 2 2 2 2 2 2 1 1 1 1 0 1 2 3 3 5 5 4 4 5 8 9 10
Wind_Direction
201 204 202 212 209 236 243 208 201 233 255 254 264 293 316 316 321 325 324 332 333 324 320 320 322 322 319 318 316 316 316 320 326 327 319 316 310 304
195 191 208 230 235 228 231 246 241 224 246 254 259 313 318 326 326 327 319 325 324 322 313 315 316 315 316 318 322 324 321 325 326 329 323 321 316 310
199 197 229 231 239 244 232 232 240 226 239 272 287 312 310 320 330 333 335 326 324 330 326 323 320 316 316 317 321 325 325 326 325 330 328 325 322 317
212 206 230 227 240 247 237 236 242 237 223 251 272 291 296 297 312 318 328 329 321 331 335 336 331 330 325 318 320 325 326 326 326 330 328 326 324 318
220 219 227 218 235 237 233 236 243 243 226 228 262 274 293 309 323 321 319 315 316 319 325 330 336 337 333 329 332 330 327 326 326 328 326 325 326 324
232 233 232 223 229 230 231 231 226 221 210 215 246 259 264 280 275 294 315 315 311 314 320 328 333 332 331 330 331 329 329 328 327 326 325 324 324 321
238 245 243 236 236 231 232 224 210 213 212 217 230 250 242 239 249 263 277 299 297 301 318 316 318 318 322 324 324 326 331 333 330 326 323 322 320 317
235 246 249 239 244 240 237 233 221 214 217 220 230 234 240 245 255 249 252 282 285 295 311 298 302 299 303 304 314 320 327 331 332 332 328 326 322 318
234 240 254 251 238 242 242 243 243 239 229 223 229 236 236 234 231 243 245 253 263 275 296 277 286 285 294 299 312 318 324 325 328 327 323 324 322 321
232 229 233 240 235 234 228 235 245 253 252 244 235 242 246 238 229 236 239 269 281 277 256 260 282 286 298 296 306 318 321 326 331 327 325 324 325 325
242 240 232 234 238 235 219 226 250 268 283 262 257 254 255 252 230 191 204 224 265 267 259 242 276 300 292 284 303 320 324 329 327 328 332 331 330 327
259 256 245 239 242 237 219 212 233 249 242 273 277 282 263 257 243 211 203 210 229 252 241 233 256 318 298 283 298 316 322 324 323 330 333 333 333 331
248 256 249 246 247 247 246 227 235 246 206 217 244 261 275 266 266 255 237 217 221 232 216 201 230 252 261 292 300 306 315 316 317 320 321 326 330 332
240 248 245 246 256 264 265 237 244 253 184 196 226 238 241 253 259 258 255 250 241 236 224 211 230 245 269 285 289 305 312 316 325 324 323 327 330 331
244 248 251 255 267 272 247 238 239 199 200 211 228 243 243 237 236 224 212 256 301 282 249 226 233 256 257 260 280 290 307 312 323 327 327 329 325 325
251 247 250 267 280 291 267 272 246 224 223 224 233 245 236 204 205 187 176 71 350 326 329 259 240 239 252 263 262 276 285 292 309 316 317 316 318 315
203 214 216 202 221 259 278 259 220 205 223 224 214 211 219 216 207 176 177 182 206 265 307 325 308 269 250 245 261 267 278 291 294 305 317 315 311 309
210 199 211 218 224 226 229 242 232 222 222 218 214 209 211 219 220 199 176 180 211 246 266 296 330 346 352 306 245 256 271 282 298 307 307 304 306 309
204 205 218 226 229 225 222 222 224 221 219 219 217 212 207 214 213 210 197 201 221 240 261 278 288 236 291 298 302 272 271 295 304 303 292 282 290 299
212 219 226 228 230 228 226 225 222 212 211 217 215 211 198 199 205 208 209 209 218 232 266 274 243 233 230 254 277 292 294 283 282 291 299 299 291 300
227 231 232 229 230 230 227 220 216 215 214 215 214 212 198 193 204 210 208 205 205 215 238 257 259 260 262 12 302 294 298 295 294 290 298 307 311 313
232 231 232 229 227 225 222 215 215 216 214 217 216 211 201 197 201 203 202 204 216 226 248 275 297 291 179 203 259 282 298 313 313 312 303 279 271 275
233 234 233 227 225 222 218 214 213 219 215 212 214 208 194 191 195 194 197 195 197 217 243 284 310 274 239 234 256 277 289 304 316 323 312 306 298 288